Tracking 19562 objects as of 24-Mar-2019
HD Live streaming from Space Station
objects crossing your sky now

OPS 6394 (FLTSATCOM 4)

Track OPS 6394 (FLTSATCOM 4) now!
OPS 6394 (FLTSATCOM 4) is classified as:


NORAD ID: 12046
Int'l Code: 1980-087A
Perigee: 36,141.0 km
Apogee: 36,194.9 km
Inclination: 13.3 °
Period: 1,455.3 minutes
Semi major axis: 42538 km
RCS: Unknown
Launch date: October 31, 1980
Source: United States (US)
Launch site: AIR FORCE EASTERN TEST RANGE (AFETR)
aabbcc
Your satellite tracking list
Your tracking list is empty




NASA's NSSDC Master Catalog

Two Line Element Set (TLE):
1 12046U 80087A   19081.83965990 -.00000052 +00000-0 +00000-0 0  9992
2 12046 013.2635 328.4353 0006333 017.0791 342.9104 00.98951545104018
Source of the keplerian elements: McCants